Regional Weather Roundup
Issued by NWS

Home | Current Version | Previous Version | Text Only | Print | Product List | Glossary On
Versions: 1 2 3 4 5 6 7 8 9 10 11 12 13 14 15 16 17 18 19 20 21 22 23 24 25 26 27 28 29 30 31 32 33 34 35 36 37 38 39 40 41 42 43 44 45 46 47 48 49 50
854
ASUS44 KLIX 290701
RWRLA
LOUISIANA WEATHER ROUNDUP
NATIONAL WEATHER SERVICE NEW ORLEANS LA
200 AM CDT FRI AUG 29 2014

NOTE: "FAIR" INDICATES FEW OR NO CLOUDS BELOW 12,000 FEET WITH NO
      SIGNIFICANT WEATHER AND/OR OBSTRUCTIONS TO VISIBILITY.
      SKY/WX - SKY CONDITION AND SIGNIFICANT WEATHER.
      TMP - AIR TEMPERATURE.    DP   - DEWPOINT TEMPERATURE.
      RH  - RELATIVE HUMIDITY.  PRES - PRESSURE.
      HX  - HEAT INDEX.         WCI  - WIND CHILL INDEX.

*  THESE STATIONS ARE NOT NWS OR FAA STATIONS AND ARE NOT UNDER
   NWS QUALITY CONTROL.

LAZ040-048-061>063-065-066-069-290800-
SOUTHEAST LOUISIANA

CITY           SKY/WX    TMP DP  RH WIND       PRES   REMARKS
N.O. AUDUBON     N/A     79  76  91 MISG        N/A
N.O. INTL ARPT PTCLDY    81  73  76 CALM      29.95F
N.O. LAKEFRONT CLEAR     81  73  76 SE6       29.95F
N.O. DOWNTOWN* FAIR      82  70  65 SE3       29.95F
SLIDELL        CLEAR     73  71  93 CALM      29.95F
BATON ROUGE    PTCLDY    77  73  87 N3        29.95F
BOOTHVILLE     PTCLDY    81  76  84 SE3       29.94F
BELLE CHASSE   CLEAR     75  71  87 CALM      29.94F
BOGALUSA*        N/A     74  71  88 CALM      29.98F
GALLIANO*      NOT AVBL
NEW ROADS*     FAIR      77  75  92 CALM      29.95F
GONZALES*      FAIR      75  75 100 CALM      29.94F
HAMMOND*       NOT AVBL
HOUMA*         PTCLDY    75  71  87 CALM      29.94S
PORT FOURCHON* MOSUNNY   84  75  74 SE12      29.94F

$$

LAZ041-044-053-054-290800-
SOUTHWEST LOUISIANA

CITY           SKY/WX    TMP DP  RH WIND       PRES   REMARKS
LAKE CHARLES   CLEAR     77  75  93 CALM      29.92F
LAFAYETTE      CLOUDY    78  75  90 CALM      29.94F
PATTERSON        N/A     75  73  94 NE5       29.96F
SALT POINT       N/A     79  76  90 CALM      29.92F
NEW IBERIA     MOCLDY    78  74  87 E5        29.94F
CHENAULT AIRPK CLEAR     77  74  90 E3        29.93F

$$

LAZ027-028-290800-
CENTRAL LOUISIANA

CITY           SKY/WX    TMP DP  RH WIND       PRES   REMARKS
FORT POLK      CLEAR     75  73  93 CALM      29.94F
ALEXANDRIA INT PTCLDY    75  73  93 CALM      29.93F
ALEXANDRIA     PTCLDY    75  73  93 CALM      29.95F

$$

LAZ001-002-290800-
NORTHWEST LOUISIANA

CITY           SKY/WX    TMP DP  RH WIND       PRES   REMARKS
SHREVEPORT     PTCLDY    79  71  76 S5        29.92F
BARKSDALE AFB  CLOUDY    77  71  82 SE6       29.93F
DTN SHREVEPORT PTCLDY    81  72  74 S6        29.93F

$$

LAZ014-016-290800-
NORTHEAST LOUISIANA

CITY           SKY/WX    TMP DP  RH WIND       PRES   REMARKS
MONROE         PTCLDY    73  70  90 CALM      29.96F
TALLULAH       CLOUDY    74  72  93 CALM      29.96S

$$




USA.gov is the U.S. government's official web portal to all federal, state and local government web resources and services.